EW4907 Weather Reports


Display with metric or nautical units.
time (UTC)temp
F
wind
direction
speed
MPH
gust
MPH
rain 1hr
in
rain 24hr
in
rain mn
in
humidity
%
barometer
mb
20260901173051 91 98 6.0 13.0 0.00 0.00 0.00 49 1015.9
20260901171551 90 79 4.0 10.0 0.00 0.00 0.00 53 1016.1
20260901170133 90 219 3.0 10.0 0.00 0.00 0.00 53 1016.2
20260901164545 90 176 3.0 12.0 0.00 0.00 0.00 53 1016.4
20260901163044 90 217 4.0 10.0 0.00 0.00 0.00 53 1016.4
20260901161550 89 187 4.0 8.0 0.00 0.00 0.00 54 1016.6
20260901160039 88 85 4.0 10.0 0.00 0.00 0.00 56 1016.6
20260901154539 87 132 2.0 5.0 0.00 0.00 0.00 58 1016.5
20260901153044 86 112 1.0 5.0 0.00 0.00 0.00 62 1016.4
20260901151533 85 259 0.0 3.0 0.00 0.00 0.00 65 1016.4
20260901150031 84 157 1.0 3.0 0.00 0.00 0.00 68 1016.6
20260901144528 82 294 1.0 5.0 0.00 0.00 0.00 72 1016.5
20260901143027 82 240 0.0 5.0 0.00 0.00 0.00 75 1016.6
20260901141535 80 275 1.0 5.0 0.00 0.00 0.00 78 1016.7
20260901140029 80 283 3.0 6.0 0.00 0.00 0.00 80 1016.8
20260901134524 79 249 2.0 7.0 0.00 0.00 0.00 83 1016.6
20260901133022 78 237 3.0 7.0 0.00 0.00 0.00 84 1016.4
20260901131531 78 229 2.0 7.0 0.00 0.00 0.00 86 1016.2
20260901130019 76 233 1.0 5.0 0.00 0.00 0.00 88 1016.2
20260901124518 76 234 1.0 4.0 0.00 0.00 0.00 89 1016.0
20260901123015 75 248 1.0 4.0 0.00 0.00 0.00 89 1015.8
20260901121519 75 271 1.0 4.0 0.00 0.00 0.00 89 1015.8
20260901120013 75 251 1.0 4.0 0.00 0.00 0.00 89 1015.9
20260901114512 75 261 2.0 5.0 0.00 0.00 0.00 89 1015.8
20260901113012 75 268 3.0 6.0 0.00 0.00 0.00 89 1015.6
20260901111611 75 228 1.0 6.0 0.00 0.00 0.00 89 1015.5
20260901110017 75 245 3.0 7.0 0.00 0.00 0.00 89 1015.5
20260901104520 75 211 2.0 7.0 0.00 0.00 0.00 88 1015.5
20260901103009 75 235 4.0 8.0 0.00 0.00 0.00 88 1015.5
20260901101507 75 259 1.0 4.0 0.00 0.00 0.00 87 1015.6
20260901100006 75 210 2.0 4.0 0.00 0.00 0.00 86 1015.6
20260901094506 75 203 1.0 4.0 0.00 0.00 0.00 86 1015.8
20260901093005 75 154 2.0 4.0 0.00 0.00 0.00 85 1015.9
20260901091502 76 169 2.0 5.0 0.00 0.00 0.00 84 1015.8
20260901090005 76 188 1.0 5.0 0.00 0.00 0.00 84 1015.6
20260901084610 76 226 1.0 5.0 0.00 0.00 0.00 84 1015.5
20260901083059 76 207 2.0 6.0 0.00 0.00 0.00 84 1015.5
20260901081605 76 179 2.0 6.0 0.00 0.00 0.00 84 1015.6
20260901080056 77 169 2.0 5.0 0.00 0.00 0.00 83 1015.6
20260901074554 77 179 2.0 6.0 0.00 0.00 0.00 82 1015.7
20260901073052 78 212 3.0 8.0 0.00 0.00 0.00 80 1015.7
20260901071551 78 169 4.0 9.0 0.00 0.00 0.00 79 1015.7
20260901070048 78 172 2.0 4.0 0.00 0.00 0.00 75 1015.8
20260901064546 78 139 1.0 4.0 0.00 0.00 0.00 75 1015.7
20260901063043 79 157 3.0 6.0 0.00 0.00 0.00 74 1015.6
20260901061548 79 167 3.0 6.0 0.00 0.00 0.00 72 1015.3
20260901060043 80 163 3.0 7.0 0.00 0.00 0.00 71 1015.3
20260901054536 81 186 4.0 9.0 0.00 0.00 0.00 70 1015.3
20260901053039 81 161 5.0 10.0 0.00 0.00 0.00 70 1015.2
20260901051535 82 168 4.0 11.0 0.00 0.00 0.00 69 1015.2
20260901050028 82 183 5.0 10.0 0.00 0.00 0.00 68 1015.1
20260901044532 83 187 6.0 11.0 0.00 0.00 0.00 68 1015.0
20260901043029 83 150 6.0 11.0 0.00 0.00 0.00 67 1015.0
20260901041528 84 150 7.0 13.0 0.00 0.00 0.00 66 1015.0
20260901040033 84 141 5.0 13.0 0.00 0.00 0.00 66 1014.9
20260901034533 84 109 8.0 16.0 0.00 0.00 0.00 65 1014.9
20260901033024 84 135 7.0 14.0 0.00 0.00 0.00 63 1014.8
20260901031543 85 148 4.0 13.0 0.00 0.00 0.00 59 1014.7
20260901030024 85 142 6.0 10.0 0.00 0.00 0.00 53 1014.4
20260901024623 86 117 4.0 8.0 0.00 0.00 0.00 49 1014.2
20260901023024 87 159 2.0 4.0 0.00 0.00 0.00 48 1013.9
20260901021520 88 98 3.0 6.0 0.00 0.00 0.00 46 1013.6
20260901020020 88 105 4.0 8.0 0.00 0.00 0.00 44 1013.5
20260901014519 88 124 2.0 5.0 0.00 0.00 0.00 44 1013.2
20260901013019 89 108 2.0 5.0 0.00 0.00 0.00 44 1013.1
20260901011517 89 141 3.0 5.0 0.00 0.00 0.00 44 1013.1
20260901010031 90 124 1.0 3.0 0.00 0.00 0.00 44 1012.9
20260901004516 92 152 0.0 4.0 0.00 0.00 0.00 42 1012.9
20260901003015 93 127 3.0 8.0 0.00 0.00 0.00 41 1012.9
20260901001519 93 128 2.0 10.0 0.00 0.00 0.00 41 1012.7
20260901000015 94 120 4.0 11.0 0.00 0.00 0.00 40 1012.8
20260831234513 94 154 3.0 9.0 0.00 0.00 0.00 38 1012.7
20260831233015 95 125 4.0 11.0 0.00 0.00 0.00 39 1012.6
20260831231511 95 140 5.0 9.0 0.00 0.00 0.00 40 1012.7
20260831230013 96 214 6.0 13.0 0.00 0.00 0.00 38 1012.9
20260831224509 95 133 7.0 15.0 0.00 0.00 0.00 39 1012.8
20260831223007 95 159 6.0 14.0 0.00 0.00 0.00 38 1013.0
20260831221516 96 148 1.0 8.0 0.00 0.00 0.00 40 1013.0
20260831220004 95 156 5.0 11.0 0.00 0.00 0.00 40 1013.1
20260831214501 96 153 5.0 10.0 0.00 0.00 0.00 39 1013.4
20260831213058 95 94 5.0 12.0 0.00 0.00 0.00 39 1013.5
20260831211608 95 153 3.0 11.0 0.00 0.00 0.00 41 1013.7
20260831210054 94 77 6.0 12.0 0.00 0.00 0.00 42 1013.9
20260831204552 95 225 7.0 14.0 0.00 0.00 0.00 42 1014.3
20260831203048 94 179 5.0 11.0 0.00 0.00 0.00 42 1014.5
20260831201550 94 133 4.0 13.0 0.00 0.00 0.00 42 1014.9
20260831200043 93 166 4.0 11.0 0.00 0.00 0.00 44 1015.1
20260831194615 93 192 6.0 15.0 0.00 0.00 0.00 44 1015.3
20260831193038 92 109 5.0 16.0 0.00 0.00 0.00 46 1015.4
20260831191538 92 164 7.0 14.0 0.00 0.00 0.00 48 1015.7
20260831190039 92 163 5.0 13.0 0.00 0.00 0.00 50 1015.9
20260831184543 91 176 6.0 17.0 0.00 0.00 0.00 51 1015.8
20260831183032 91 113 4.0 13.0 0.00 0.00 0.00 53 1016.1
20260831181533 90 151 5.0 11.0 0.00 0.00 0.00 54 1016.2
20260831180029 90 105 3.0 11.0 0.00 0.00 0.00 55 1016.4
20260831174543 89 160 3.0 14.0 0.00 0.00 0.00 55 1016.6